Year,Month,Day,Hour,Minute,Value (Times are PST for temperature in C)
2009,07,04,00,00,16.90
2009,07,04,00,05,16.70
2009,07,04,00,06,16.70
2009,07,04,00,07,16.70
2009,07,04,00,08,16.70
2009,07,04,00,09,16.60
2009,07,04,00,10,16.60
2009,07,04,00,11,16.60
2009,07,04,00,12,16.60
2009,07,04,00,13,16.50
2009,07,04,00,14,16.50
2009,07,04,00,15,16.40
2009,07,04,00,16,16.40
2009,07,04,00,17,16.40
2009,07,04,00,18,16.40
2009,07,04,00,19,16.40
2009,07,04,00,20,16.40
2009,07,04,00,21,16.40
2009,07,04,00,22,16.40
2009,07,04,00,23,16.40
2009,07,04,00,24,16.40
2009,07,04,00,25,16.40
2009,07,04,00,26,16.50
2009,07,04,00,27,16.50
2009,07,04,00,28,16.50
2009,07,04,00,29,16.50
2009,07,04,00,30,16.40
2009,07,04,00,31,16.40
2009,07,04,00,32,16.40
2009,07,04,00,33,16.40
2009,07,04,00,34,16.40
2009,07,04,00,35,16.40
2009,07,04,00,36,16.40
2009,07,04,00,37,16.30
2009,07,04,00,38,16.30
2009,07,04,00,39,16.30
2009,07,04,00,40,16.30
2009,07,04,00,41,16.30
2009,07,04,00,42,16.30
2009,07,04,00,43,16.30
2009,07,04,00,44,16.20
2009,07,04,00,45,16.20
2009,07,04,00,46,16.20
2009,07,04,00,47,16.20
2009,07,04,00,48,16.20
2009,07,04,00,49,16.20
2009,07,04,00,50,16.20
2009,07,04,00,51,16.20
2009,07,04,00,52,16.20
2009,07,04,00,53,16.10
2009,07,04,00,54,16.10
2009,07,04,00,55,16.10
2009,07,04,00,56,16.10
2009,07,04,00,57,16.10
2009,07,04,00,58,16.10
2009,07,04,00,59,16.10
2009,07,04,01,00,16.10
2009,07,04,01,01,16.00
2009,07,04,01,02,16.00
2009,07,04,01,03,16.00
2009,07,04,01,04,15.90
2009,07,04,01,05,15.90
2009,07,04,01,06,15.90
2009,07,04,01,07,15.80
2009,07,04,01,08,15.80
2009,07,04,01,09,15.80
2009,07,04,01,10,15.70
2009,07,04,01,11,15.70
2009,07,04,01,12,15.60
2009,07,04,01,13,15.60
2009,07,04,01,14,15.60
2009,07,04,01,15,15.60
2009,07,04,01,16,15.60
2009,07,04,01,17,15.60
2009,07,04,01,18,15.60
2009,07,04,01,19,15.60
2009,07,04,01,20,15.60
2009,07,04,01,21,15.60
2009,07,04,01,22,15.60
2009,07,04,01,23,15.60
2009,07,04,01,24,15.70
2009,07,04,01,25,15.70
2009,07,04,01,26,15.60
2009,07,04,01,27,15.70
2009,07,04,01,28,15.70
2009,07,04,01,29,15.70
2009,07,04,01,30,15.70
2009,07,04,01,31,15.70
2009,07,04,01,32,15.70
2009,07,04,01,33,15.70
2009,07,04,01,34,15.60
2009,07,04,01,35,15.60
2009,07,04,01,36,15.60
2009,07,04,01,37,15.60
2009,07,04,01,38,15.50
2009,07,04,01,39,15.50
2009,07,04,01,40,15.50
2009,07,04,01,41,15.40
2009,07,04,01,42,15.40
2009,07,04,01,43,15.40
2009,07,04,01,44,15.30
2009,07,04,01,45,15.30
2009,07,04,01,46,15.30
2009,07,04,01,47,15.30
2009,07,04,01,48,15.20
2009,07,04,01,49,15.20
2009,07,04,01,50,15.20
2009,07,04,01,51,15.10
2009,07,04,01,52,15.10
2009,07,04,01,53,15.10
2009,07,04,01,54,15.00
2009,07,04,01,55,15.00
2009,07,04,01,56,15.00
2009,07,04,01,57,15.00
2009,07,04,01,58,15.00
2009,07,04,01,59,15.00
2009,07,04,02,00,15.00
2009,07,04,02,01,15.00
2009,07,04,02,02,15.00
2009,07,04,02,03,15.00
2009,07,04,02,04,15.00
2009,07,04,02,05,15.00
2009,07,04,02,06,15.00
2009,07,04,02,07,15.00
2009,07,04,02,08,15.00
2009,07,04,02,09,15.00
2009,07,04,02,10,15.00
2009,07,04,02,11,15.00
2009,07,04,02,12,15.00
2009,07,04,02,13,15.00
2009,07,04,02,14,15.00
2009,07,04,02,15,15.00
2009,07,04,02,16,15.00
2009,07,04,02,17,15.00
2009,07,04,02,18,15.00
2009,07,04,02,19,15.00
2009,07,04,02,20,15.00
2009,07,04,02,21,15.00
2009,07,04,02,22,14.90
2009,07,04,02,23,14.80
2009,07,04,02,24,14.80
2009,07,04,02,25,14.80
2009,07,04,02,26,14.70
2009,07,04,02,27,14.70
2009,07,04,02,28,14.70
2009,07,04,02,29,14.70
2009,07,04,02,30,14.70
2009,07,04,02,31,14.70
2009,07,04,02,32,14.70
2009,07,04,02,33,14.70
2009,07,04,02,34,14.70
2009,07,04,02,35,14.70
2009,07,04,02,36,14.70
2009,07,04,02,37,14.70
2009,07,04,02,38,14.70
2009,07,04,02,39,14.70
2009,07,04,02,40,14.80
2009,07,04,02,41,14.80
2009,07,04,02,42,14.80
2009,07,04,02,43,14.80
2009,07,04,02,44,14.90
2009,07,04,02,45,15.00
2009,07,04,02,46,15.00
2009,07,04,02,47,15.00
2009,07,04,02,48,15.00
2009,07,04,02,49,15.00
2009,07,04,02,50,15.00
2009,07,04,02,51,15.00
2009,07,04,02,52,15.00
2009,07,04,02,53,15.00
2009,07,04,02,54,15.00
2009,07,04,02,55,15.00
2009,07,04,02,56,15.00
2009,07,04,02,57,15.00
2009,07,04,02,58,15.00
2009,07,04,02,59,15.00
2009,07,04,03,00,15.00
2009,07,04,03,01,15.00
2009,07,04,03,02,15.00
2009,07,04,03,03,15.00
2009,07,04,03,04,15.00
2009,07,04,03,05,15.00
2009,07,04,03,06,15.00
2009,07,04,03,07,15.00
2009,07,04,03,08,15.00
2009,07,04,03,09,15.00
2009,07,04,03,10,15.00
2009,07,04,03,11,15.00
2009,07,04,03,12,15.00
2009,07,04,03,13,15.00
2009,07,04,03,14,15.00
2009,07,04,03,15,15.00
2009,07,04,03,16,15.00
2009,07,04,03,17,15.00
2009,07,04,03,18,15.00
2009,07,04,03,19,15.00
2009,07,04,03,20,15.00
2009,07,04,03,21,15.00
2009,07,04,03,22,15.00
2009,07,04,03,23,15.00
2009,07,04,03,24,15.00
2009,07,04,03,25,15.00
2009,07,04,03,26,15.00
2009,07,04,03,27,15.00
2009,07,04,03,28,15.00
2009,07,04,03,29,15.00
2009,07,04,03,30,15.00
2009,07,04,03,31,14.90
2009,07,04,03,32,14.80
2009,07,04,03,33,14.80
2009,07,04,03,34,14.70
2009,07,04,03,35,14.70
2009,07,04,03,36,14.60
2009,07,04,03,37,14.60
2009,07,04,03,38,14.50
2009,07,04,03,39,14.50
2009,07,04,03,40,14.50
2009,07,04,03,41,14.50
2009,07,04,03,42,14.50
2009,07,04,03,43,14.50
2009,07,04,03,44,14.50
2009,07,04,03,45,14.50
2009,07,04,03,46,14.50
2009,07,04,03,47,14.60
2009,07,04,03,48,14.60
2009,07,04,03,49,14.60
2009,07,04,03,50,14.60
2009,07,04,03,51,14.60
2009,07,04,03,52,14.60
2009,07,04,03,53,14.60
2009,07,04,03,54,14.60
2009,07,04,03,55,14.70
2009,07,04,03,56,14.70
2009,07,04,03,57,14.70
2009,07,04,03,58,14.70
2009,07,04,03,59,14.70
2009,07,04,04,00,14.70
2009,07,04,04,01,14.60
2009,07,04,04,02,14.60
2009,07,04,04,03,14.60
2009,07,04,04,04,14.60
2009,07,04,04,05,14.70
2009,07,04,04,06,14.80
2009,07,04,04,07,14.90
2009,07,04,04,08,15.00
2009,07,04,04,09,15.00
2009,07,04,04,10,15.00
2009,07,04,04,11,15.00
2009,07,04,04,12,15.00
2009,07,04,04,13,14.90
2009,07,04,04,14,14.90
2009,07,04,04,15,14.80
2009,07,04,04,16,14.80
2009,07,04,04,17,14.80
2009,07,04,04,18,14.80
2009,07,04,04,19,14.80
2009,07,04,04,20,14.80
2009,07,04,04,21,14.70
2009,07,04,04,22,14.70
2009,07,04,04,23,14.70
2009,07,04,04,24,14.70
2009,07,04,04,25,14.70
2009,07,04,04,26,14.70
2009,07,04,04,27,14.70
2009,07,04,04,28,14.70
2009,07,04,04,29,14.70
2009,07,04,04,30,14.60
2009,07,04,04,31,14.70
2009,07,04,04,32,14.70
2009,07,04,04,33,14.60
2009,07,04,04,34,14.60
2009,07,04,04,35,14.60
2009,07,04,04,36,14.60
2009,07,04,04,37,14.70
2009,07,04,04,38,14.60
2009,07,04,04,39,14.70
2009,07,04,04,40,14.70
2009,07,04,04,41,14.60
2009,07,04,04,42,14.60
2009,07,04,04,43,14.60
2009,07,04,04,44,14.60
2009,07,04,04,45,14.60
2009,07,04,04,46,14.60
2009,07,04,04,47,14.60
2009,07,04,04,48,14.60
2009,07,04,04,49,14.60
2009,07,04,04,50,14.60
2009,07,04,04,51,14.60
2009,07,04,04,52,14.60
2009,07,04,04,53,14.60
2009,07,04,04,54,14.50
2009,07,04,04,55,14.50
2009,07,04,04,56,14.60
2009,07,04,04,57,14.60
2009,07,04,04,58,14.60
2009,07,04,04,59,14.50
2009,07,04,05,00,14.50
2009,07,04,05,01,14.40
2009,07,04,05,02,14.40
2009,07,04,05,03,14.40
2009,07,04,05,04,14.30
2009,07,04,05,05,14.30
2009,07,04,05,06,14.30
2009,07,04,05,07,14.30
2009,07,04,05,08,14.30
2009,07,04,05,09,14.30
2009,07,04,05,10,14.30
2009,07,04,05,11,14.30
2009,07,04,05,12,14.40
2009,07,04,05,13,14.40
2009,07,04,05,14,14.50
2009,07,04,05,15,14.50
2009,07,04,05,16,14.40
2009,07,04,05,17,14.40
2009,07,04,05,18,14.30
2009,07,04,05,19,14.30
2009,07,04,05,20,14.20
2009,07,04,05,21,14.10
2009,07,04,05,22,14.10
2009,07,04,05,23,14.00
2009,07,04,05,24,14.00
2009,07,04,05,25,14.00
2009,07,04,05,26,13.90
2009,07,04,05,27,13.90
2009,07,04,05,28,13.80
2009,07,04,05,29,13.80
2009,07,04,05,30,13.80
2009,07,04,05,31,13.80
2009,07,04,05,32,13.80
2009,07,04,05,33,13.80
2009,07,04,05,34,13.90
2009,07,04,05,35,13.90
2009,07,04,05,36,14.00
2009,07,04,05,37,14.00
2009,07,04,05,38,14.10
2009,07,04,05,39,14.20
2009,07,04,05,40,14.20
2009,07,04,05,41,14.30
2009,07,04,05,42,14.30
2009,07,04,05,43,14.30
2009,07,04,05,44,14.40
2009,07,04,05,45,14.40
2009,07,04,05,46,14.40
2009,07,04,05,47,14.40
2009,07,04,05,48,14.40
2009,07,04,05,49,14.40
2009,07,04,05,50,14.40
2009,07,04,05,51,14.30
2009,07,04,05,52,14.40
2009,07,04,05,53,14.40
2009,07,04,05,54,14.40
2009,07,04,05,55,14.40
2009,07,04,05,56,14.40
2009,07,04,05,57,14.50
2009,07,04,05,58,14.50
2009,07,04,05,59,14.50
2009,07,04,06,00,14.50
2009,07,04,06,01,14.50
2009,07,04,06,02,14.50
2009,07,04,06,03,14.50
2009,07,04,06,04,14.50
2009,07,04,06,05,14.50
2009,07,04,06,06,14.50
2009,07,04,06,07,14.50
2009,07,04,06,08,14.50
2009,07,04,06,09,14.60
2009,07,04,06,10,14.60
2009,07,04,06,11,14.60
2009,07,04,06,12,14.60
2009,07,04,06,13,14.60
2009,07,04,06,14,14.50
2009,07,04,06,15,14.50
2009,07,04,06,16,14.50
2009,07,04,06,17,14.40
2009,07,04,06,18,14.50
2009,07,04,06,19,14.50
2009,07,04,06,20,14.50
2009,07,04,06,21,14.60
2009,07,04,06,22,14.60
2009,07,04,06,23,14.60
2009,07,04,06,24,14.60
2009,07,04,06,25,14.60
2009,07,04,06,26,14.60
2009,07,04,06,27,14.70
2009,07,04,06,28,14.70
2009,07,04,06,29,14.70
2009,07,04,06,30,14.80
2009,07,04,06,31,14.80
2009,07,04,06,32,14.90
2009,07,04,06,33,15.00
2009,07,04,06,34,15.00
2009,07,04,06,35,15.00
2009,07,04,06,36,15.00
2009,07,04,06,37,15.00
2009,07,04,06,38,15.00
2009,07,04,06,39,15.00
2009,07,04,06,40,15.00
2009,07,04,06,41,15.00
2009,07,04,06,42,15.00
2009,07,04,06,43,15.00
2009,07,04,06,44,15.00
2009,07,04,06,45,15.00
2009,07,04,06,46,15.20
2009,07,04,06,47,15.30
2009,07,04,06,48,15.40
2009,07,04,06,49,15.40
2009,07,04,06,50,15.50
2009,07,04,06,51,15.50
2009,07,04,06,52,15.50
2009,07,04,06,53,15.60
2009,07,04,06,54,15.70
2009,07,04,06,55,15.80
2009,07,04,06,56,15.80
2009,07,04,06,57,15.90
2009,07,04,06,58,15.90
2009,07,04,06,59,16.00
2009,07,04,07,00,16.10
2009,07,04,07,01,16.20
2009,07,04,07,02,16.20
2009,07,04,07,03,16.30
2009,07,04,07,04,16.30
2009,07,04,07,05,16.40
2009,07,04,07,06,16.40
2009,07,04,07,07,16.50
2009,07,04,07,08,16.50
2009,07,04,07,09,16.60
2009,07,04,07,10,16.70
2009,07,04,07,11,16.70
2009,07,04,07,12,16.70
2009,07,04,07,13,16.80
2009,07,04,07,14,16.80
2009,07,04,07,15,16.80
2009,07,04,07,16,16.80
2009,07,04,07,17,16.90
2009,07,04,07,18,16.90
2009,07,04,07,19,17.00
2009,07,04,07,20,17.00
2009,07,04,07,21,17.10
2009,07,04,07,22,17.10
2009,07,04,07,23,17.10
2009,07,04,07,24,17.10
2009,07,04,07,25,17.20
2009,07,04,07,26,17.20
2009,07,04,07,27,17.30
2009,07,04,07,28,17.30
2009,07,04,07,29,17.30
2009,07,04,07,30,17.40
2009,07,04,07,31,17.40
2009,07,04,07,32,17.40
2009,07,04,07,33,17.40
2009,07,04,07,34,17.40
2009,07,04,07,35,17.50
2009,07,04,07,36,17.50
2009,07,04,07,37,17.40
2009,07,04,07,38,17.40
2009,07,04,07,39,17.40
2009,07,04,07,40,17.50
2009,07,04,07,41,17.50
2009,07,04,07,42,17.50
2009,07,04,07,43,17.60
2009,07,04,07,44,17.60
2009,07,04,07,45,17.70
2009,07,04,07,46,17.70
2009,07,04,07,47,17.70
2009,07,04,07,48,17.80
2009,07,04,07,49,17.80
2009,07,04,07,50,17.80
2009,07,04,07,51,17.80
2009,07,04,07,52,17.80
2009,07,04,07,53,17.80
2009,07,04,07,54,17.80
2009,07,04,07,55,17.70
2009,07,04,07,56,17.70
2009,07,04,07,57,17.70
2009,07,04,07,58,17.70
2009,07,04,07,59,17.70
2009,07,04,08,00,17.70
2009,07,04,08,01,17.70
2009,07,04,08,02,17.70
2009,07,04,08,03,17.70
2009,07,04,08,04,17.60
2009,07,04,08,05,17.70
2009,07,04,08,06,17.70
2009,07,04,08,07,17.70
2009,07,04,08,08,17.70
2009,07,04,08,09,17.70
2009,07,04,08,10,17.70
2009,07,04,08,11,17.70
2009,07,04,08,12,17.70
2009,07,04,08,13,17.70
2009,07,04,08,14,17.70
2009,07,04,08,15,17.70
2009,07,04,08,16,17.70
2009,07,04,08,17,17.80
2009,07,04,08,18,17.80
2009,07,04,08,19,17.80
2009,07,04,08,20,17.80
2009,07,04,08,21,17.80
2009,07,04,08,22,17.80
2009,07,04,08,23,17.90
2009,07,04,08,24,17.80
2009,07,04,08,25,17.80
2009,07,04,08,26,17.90
2009,07,04,08,27,17.90
2009,07,04,08,28,17.90
2009,07,04,08,29,17.90
2009,07,04,08,30,18.00
2009,07,04,08,31,18.10
2009,07,04,08,32,18.10
2009,07,04,08,33,18.20
2009,07,04,08,34,18.20
2009,07,04,08,35,18.20
2009,07,04,08,36,18.20
2009,07,04,08,37,18.20
2009,07,04,08,38,18.20
2009,07,04,08,39,18.20
2009,07,04,08,40,18.20
2009,07,04,08,41,18.20
2009,07,04,08,42,18.20
2009,07,04,08,43,18.30
2009,07,04,08,44,18.30
2009,07,04,08,45,18.40
2009,07,04,08,46,18.50
2009,07,04,08,47,18.60
2009,07,04,08,48,18.70
2009,07,04,08,49,18.70
2009,07,04,08,50,18.70
2009,07,04,08,51,18.70
2009,07,04,08,52,18.70
2009,07,04,08,53,18.70
2009,07,04,08,54,18.70
2009,07,04,08,55,18.70
2009,07,04,08,56,18.80
2009,07,04,08,57,18.80
2009,07,04,08,58,18.80
2009,07,04,08,59,18.80
2009,07,04,09,00,18.80
2009,07,04,09,01,18.80
2009,07,04,09,02,18.80
2009,07,04,09,03,18.80
2009,07,04,09,04,18.80
2009,07,04,09,05,18.80
2009,07,04,09,06,18.80
2009,07,04,09,07,18.90
2009,07,04,09,08,18.90
2009,07,04,09,09,19.00
2009,07,04,09,10,19.00
2009,07,04,09,11,19.00
2009,07,04,09,12,19.10
2009,07,04,09,13,19.10
2009,07,04,09,14,19.20
2009,07,04,09,15,19.30
2009,07,04,09,16,19.30
2009,07,04,09,17,19.30
2009,07,04,09,18,19.30
2009,07,04,09,19,19.30
2009,07,04,09,20,19.30
2009,07,04,09,21,19.30
2009,07,04,09,22,19.30
2009,07,04,09,23,19.30
2009,07,04,09,24,19.30
2009,07,04,09,25,19.40
2009,07,04,09,26,19.40
2009,07,04,09,27,19.40
2009,07,04,09,28,19.50
2009,07,04,09,29,19.60
2009,07,04,09,30,19.70
2009,07,04,09,31,19.80
2009,07,04,09,32,19.80
2009,07,04,09,33,19.90
2009,07,04,09,34,19.80
2009,07,04,09,35,19.90
2009,07,04,09,36,19.90
2009,07,04,09,37,19.90
2009,07,04,09,38,19.90
2009,07,04,09,39,20.00
2009,07,04,09,40,20.00
2009,07,04,09,41,20.10
2009,07,04,09,42,20.10
2009,07,04,09,43,20.20
2009,07,04,09,44,20.30
2009,07,04,09,45,20.30
2009,07,04,09,46,20.30
2009,07,04,09,47,20.30
2009,07,04,09,48,20.40
2009,07,04,09,49,20.40
2009,07,04,09,50,20.40
2009,07,04,09,51,20.30
2009,07,04,09,52,20.30
2009,07,04,09,53,20.20
2009,07,04,09,54,20.10
2009,07,04,09,55,20.00
2009,07,04,09,56,19.90
2009,07,04,09,57,19.90
2009,07,04,09,58,19.90
2009,07,04,09,59,19.90
2009,07,04,10,00,19.90
2009,07,04,10,01,19.80
2009,07,04,10,02,19.80
2009,07,04,10,03,19.80
2009,07,04,10,04,19.80
2009,07,04,10,05,19.80
2009,07,04,10,06,19.80
2009,07,04,10,07,19.70
2009,07,04,10,08,19.60
2009,07,04,10,09,19.60
2009,07,04,10,10,19.60
2009,07,04,10,11,19.60
2009,07,04,10,12,19.60
2009,07,04,10,13,19.60
2009,07,04,10,14,19.60
2009,07,04,10,15,19.70
2009,07,04,10,16,19.70
2009,07,04,10,17,19.80
2009,07,04,10,18,19.90
2009,07,04,10,19,20.00
2009,07,04,10,20,20.00
2009,07,04,10,21,20.10
2009,07,04,10,22,20.10
2009,07,04,10,23,20.00
2009,07,04,10,24,19.80
2009,07,04,10,25,19.60
2009,07,04,10,26,19.50
2009,07,04,10,27,19.40
2009,07,04,10,28,19.40
2009,07,04,10,29,19.50
2009,07,04,10,30,19.50
2009,07,04,10,31,19.60
2009,07,04,10,32,19.60
2009,07,04,10,33,19.60
2009,07,04,10,34,19.60
2009,07,04,10,35,19.60
2009,07,04,10,36,19.50
2009,07,04,10,37,19.50
2009,07,04,10,38,19.60
2009,07,04,10,39,19.60
2009,07,04,10,40,19.70
2009,07,04,10,41,19.80
2009,07,04,10,42,19.90
2009,07,04,10,43,19.90
2009,07,04,10,44,19.90
2009,07,04,10,45,19.90
2009,07,04,10,46,19.90
2009,07,04,10,47,19.80
2009,07,04,10,48,19.80
2009,07,04,10,49,19.70
2009,07,04,10,50,19.60
2009,07,04,10,51,19.60
2009,07,04,10,52,19.50
2009,07,04,10,53,19.40
2009,07,04,10,54,19.40
2009,07,04,10,55,19.40
2009,07,04,10,56,19.40
2009,07,04,10,57,19.50
2009,07,04,10,58,19.50
2009,07,04,10,59,19.70
2009,07,04,11,00,19.80
2009,07,04,11,01,19.90
2009,07,04,11,02,19.90
2009,07,04,11,03,19.90
2009,07,04,11,04,19.90
2009,07,04,11,05,19.90
2009,07,04,11,06,19.90
2009,07,04,11,07,19.90
2009,07,04,11,08,20.10
2009,07,04,11,09,20.20
2009,07,04,11,10,20.40
2009,07,04,11,11,20.40
2009,07,04,11,12,20.40
2009,07,04,11,13,20.30
2009,07,04,11,14,20.40
2009,07,04,11,15,20.40
2009,07,04,11,16,20.60
2009,07,04,11,17,20.70
2009,07,04,11,18,20.80
2009,07,04,11,19,20.80
2009,07,04,11,20,20.70
2009,07,04,11,21,20.80
2009,07,04,11,22,20.80
2009,07,04,11,23,20.80
2009,07,04,11,24,20.80
2009,07,04,11,25,20.70
2009,07,04,11,26,20.60
2009,07,04,11,27,20.60
2009,07,04,11,28,20.50
2009,07,04,11,29,20.50
2009,07,04,11,30,20.40
2009,07,04,11,31,20.40
2009,07,04,11,32,20.30
2009,07,04,11,33,20.30
2009,07,04,11,34,20.30
2009,07,04,11,35,20.30
2009,07,04,11,36,20.40
2009,07,04,11,37,20.40
2009,07,04,11,38,20.40
2009,07,04,11,39,20.40
2009,07,04,11,40,20.50
2009,07,04,11,41,20.50
2009,07,04,11,42,20.50
2009,07,04,11,43,20.40
2009,07,04,11,44,20.40
2009,07,04,11,45,20.40
2009,07,04,11,46,20.40
2009,07,04,11,47,20.40
2009,07,04,11,48,20.50
2009,07,04,11,49,20.60
2009,07,04,11,50,20.70
2009,07,04,11,51,20.70
2009,07,04,11,52,20.80
2009,07,04,11,53,20.90
2009,07,04,11,54,21.00
2009,07,04,11,55,21.00
2009,07,04,11,56,21.10
2009,07,04,11,57,21.10
2009,07,04,11,58,21.00
2009,07,04,11,59,21.10
2009,07,04,12,00,21.20
2009,07,04,12,01,21.30
2009,07,04,12,02,21.40
2009,07,04,12,03,21.50
2009,07,04,12,04,21.70
2009,07,04,12,05,21.70
2009,07,04,12,06,21.80
2009,07,04,12,07,21.80
2009,07,04,12,08,21.80
2009,07,04,12,09,21.80
2009,07,04,12,10,21.80
2009,07,04,12,11,21.80
2009,07,04,12,12,21.80
2009,07,04,12,13,21.80
2009,07,04,12,14,21.80
2009,07,04,12,15,21.80
2009,07,04,12,16,21.80
2009,07,04,12,17,21.80
2009,07,04,12,18,21.90
2009,07,04,12,19,22.00
2009,07,04,12,20,22.00
2009,07,04,12,21,22.10
2009,07,04,12,22,22.20
2009,07,04,12,23,22.30
2009,07,04,12,24,22.40
2009,07,04,12,25,22.40
2009,07,04,12,26,22.30
2009,07,04,12,27,22.40
2009,07,04,12,28,22.60
2009,07,04,12,29,22.70
2009,07,04,12,30,22.80
2009,07,04,12,31,22.70
2009,07,04,12,32,22.80
2009,07,04,12,33,22.80
2009,07,04,12,34,22.90
2009,07,04,12,35,22.90
2009,07,04,12,36,23.00
2009,07,04,12,37,23.00
2009,07,04,12,38,23.10
2009,07,04,12,39,23.20
2009,07,04,12,40,23.20
2009,07,04,12,41,23.20
2009,07,04,12,42,23.30
2009,07,04,12,43,23.30
2009,07,04,12,44,23.20
2009,07,04,12,45,23.10
2009,07,04,12,46,23.00
2009,07,04,12,47,22.90
2009,07,04,12,48,22.90
2009,07,04,12,49,22.80
2009,07,04,12,50,22.80
2009,07,04,12,51,22.80
2009,07,04,12,52,22.80
2009,07,04,12,53,23.00
2009,07,04,12,54,23.10
2009,07,04,12,55,23.20
2009,07,04,12,56,23.20
2009,07,04,12,57,23.20
2009,07,04,12,58,23.30
2009,07,04,12,59,23.30
2009,07,04,13,00,23.30
2009,07,04,13,01,23.30
2009,07,04,13,02,23.30
2009,07,04,13,03,23.30
2009,07,04,13,04,23.30
2009,07,04,13,05,23.30
2009,07,04,13,06,23.20
2009,07,04,13,07,23.10
2009,07,04,13,08,23.10
2009,07,04,13,09,23.20
2009,07,04,13,10,23.20
2009,07,04,13,11,23.20
2009,07,04,13,12,23.20
2009,07,04,13,13,23.30
2009,07,04,13,14,23.40
2009,07,04,13,15,23.40
2009,07,04,13,16,23.40
2009,07,04,13,17,23.40
2009,07,04,13,18,23.50
2009,07,04,13,19,23.60
2009,07,04,13,20,23.70
2009,07,04,13,21,23.90
2009,07,04,13,22,24.10
2009,07,04,13,23,24.20
2009,07,04,13,24,24.40
2009,07,04,13,25,24.60
2009,07,04,13,26,24.80
2009,07,04,13,27,24.90
2009,07,04,13,28,25.00
2009,07,04,13,29,25.10
2009,07,04,13,30,25.10
2009,07,04,13,31,25.10
2009,07,04,13,32,25.10
2009,07,04,13,33,25.10
2009,07,04,13,34,25.00
2009,07,04,13,35,24.90
2009,07,04,13,36,24.90
2009,07,04,13,37,24.80
2009,07,04,13,38,24.80
2009,07,04,13,39,24.80
2009,07,04,13,40,24.80
2009,07,04,13,41,24.80
2009,07,04,13,42,24.90
2009,07,04,13,43,24.90
2009,07,04,13,44,25.00
2009,07,04,13,45,24.90
2009,07,04,13,46,25.00
2009,07,04,13,47,24.90
2009,07,04,13,48,24.80
2009,07,04,13,49,24.80
2009,07,04,13,50,24.80
2009,07,04,13,51,24.80
2009,07,04,13,52,24.90
2009,07,04,13,53,24.80
2009,07,04,13,54,24.70
2009,07,04,13,55,24.60
2009,07,04,13,56,24.50
2009,07,04,13,57,24.50
2009,07,04,13,58,24.50
2009,07,04,13,59,24.40
2009,07,04,14,00,24.40
2009,07,04,14,01,24.30
2009,07,04,14,02,24.20
2009,07,04,14,03,24.10
2009,07,04,14,04,24.10
2009,07,04,14,05,24.10
2009,07,04,14,06,24.20
2009,07,04,14,07,24.30
2009,07,04,14,08,24.30
2009,07,04,14,09,24.30
2009,07,04,14,10,24.30
2009,07,04,14,11,24.30
2009,07,04,14,12,24.30
2009,07,04,14,13,24.30
2009,07,04,14,14,24.30
2009,07,04,14,15,24.20
2009,07,04,14,16,24.30
2009,07,04,14,17,24.40
2009,07,04,14,18,24.40
2009,07,04,14,19,24.40
2009,07,04,14,20,24.30
2009,07,04,14,21,24.20
2009,07,04,14,22,24.20
2009,07,04,14,23,24.30
2009,07,04,14,24,24.40
2009,07,04,14,25,24.40
2009,07,04,14,26,24.50
2009,07,04,14,27,24.40
2009,07,04,14,28,24.40
2009,07,04,14,29,24.40
2009,07,04,14,30,24.40
2009,07,04,14,31,24.40
2009,07,04,14,32,24.40
2009,07,04,14,33,24.40
2009,07,04,14,34,24.40
2009,07,04,14,35,24.30
2009,07,04,14,36,24.30
2009,07,04,14,37,24.20
2009,07,04,14,38,24.20
2009,07,04,14,39,24.30
2009,07,04,14,40,24.40
2009,07,04,14,41,24.50
2009,07,04,14,42,24.50
2009,07,04,14,43,24.60
2009,07,04,14,44,24.70
2009,07,04,14,45,24.80
2009,07,04,14,46,24.90
2009,07,04,14,47,25.00
2009,07,04,14,48,25.00
2009,07,04,14,49,25.00
2009,07,04,14,50,24.90
2009,07,04,14,51,24.90
2009,07,04,14,52,24.80
2009,07,04,14,53,24.60
2009,07,04,14,54,24.50
2009,07,04,14,55,24.40
2009,07,04,14,56,24.40
2009,07,04,14,57,24.40
2009,07,04,14,58,24.30
2009,07,04,14,59,24.30
2009,07,04,15,00,24.40
2009,07,04,15,01,24.50
2009,07,04,15,02,24.60
2009,07,04,15,03,24.60
2009,07,04,15,04,24.60
2009,07,04,15,05,24.60
2009,07,04,15,06,24.60
2009,07,04,15,07,24.60
2009,07,04,15,08,24.60
2009,07,04,15,09,24.60
2009,07,04,15,10,24.50
2009,07,04,15,11,24.50
2009,07,04,15,12,24.40
2009,07,04,15,13,24.40
2009,07,04,15,14,24.40
2009,07,04,15,15,24.40
2009,07,04,15,16,24.40
2009,07,04,15,17,24.40
2009,07,04,15,18,24.40
2009,07,04,15,19,24.30
2009,07,04,15,20,24.30
2009,07,04,15,21,24.30
2009,07,04,15,22,24.30
2009,07,04,15,23,24.40
2009,07,04,15,24,24.40
2009,07,04,15,25,24.40
2009,07,04,15,26,24.40
2009,07,04,15,27,24.30
2009,07,04,15,28,24.30
2009,07,04,15,29,24.30
2009,07,04,15,30,24.30
2009,07,04,15,31,24.40
2009,07,04,15,32,24.40
2009,07,04,15,33,24.40
2009,07,04,15,34,24.50
2009,07,04,15,35,24.60
2009,07,04,15,36,24.70
2009,07,04,15,37,24.70
2009,07,04,15,38,24.60
2009,07,04,15,39,24.60
2009,07,04,15,40,24.60
2009,07,04,15,41,24.60
2009,07,04,15,42,24.60
2009,07,04,15,43,24.60
2009,07,04,15,44,24.60
2009,07,04,15,45,24.60
2009,07,04,15,46,24.50
2009,07,04,15,47,24.50
2009,07,04,15,48,24.60
2009,07,04,15,49,24.60
2009,07,04,15,50,24.60
2009,07,04,15,51,24.70
2009,07,04,15,52,24.80
2009,07,04,15,53,24.80
2009,07,04,15,54,24.80
2009,07,04,15,55,24.80
2009,07,04,15,56,24.80
2009,07,04,15,57,24.80
2009,07,04,15,58,24.90
2009,07,04,15,59,25.00
2009,07,04,16,00,25.00
2009,07,04,16,01,25.10
2009,07,04,16,02,25.10
2009,07,04,16,03,25.10
2009,07,04,16,04,25.10
2009,07,04,16,05,25.10
2009,07,04,16,06,25.10
2009,07,04,16,07,25.10
2009,07,04,16,08,25.10
2009,07,04,16,09,25.10
2009,07,04,16,10,25.00
2009,07,04,16,11,25.00
2009,07,04,16,12,24.90
2009,07,04,16,13,24.90
2009,07,04,16,14,24.90
2009,07,04,16,15,24.90
2009,07,04,16,16,25.00
2009,07,04,16,17,25.10
2009,07,04,16,18,25.30
2009,07,04,16,19,25.40
2009,07,04,16,20,25.50
2009,07,04,16,21,25.60
2009,07,04,16,22,25.70
2009,07,04,16,23,25.80
2009,07,04,16,24,25.80
2009,07,04,16,25,25.80
2009,07,04,16,26,25.80
2009,07,04,16,27,25.80
2009,07,04,16,28,25.70
2009,07,04,16,29,25.60
2009,07,04,16,30,25.70
2009,07,04,16,31,25.80
2009,07,04,16,32,25.80
2009,07,04,16,33,25.80
2009,07,04,16,34,25.80
2009,07,04,16,35,25.80
2009,07,04,16,36,25.80
2009,07,04,16,37,25.80
2009,07,04,16,38,25.80
2009,07,04,16,39,25.80
2009,07,04,16,40,25.70
2009,07,04,16,41,25.70
2009,07,04,16,42,25.70
2009,07,04,16,43,25.70
2009,07,04,16,44,25.70
2009,07,04,16,45,25.70
2009,07,04,16,46,25.60
2009,07,04,16,47,25.60
2009,07,04,16,48,25.60
2009,07,04,16,49,25.60
2009,07,04,16,50,25.60
2009,07,04,16,51,25.60
2009,07,04,16,52,25.60
2009,07,04,16,53,25.70
2009,07,04,16,54,25.70
2009,07,04,16,55,25.70
2009,07,04,16,56,25.60
2009,07,04,16,57,25.70
2009,07,04,16,58,25.70
2009,07,04,16,59,25.80
2009,07,04,17,00,25.90
2009,07,04,17,01,25.90
2009,07,04,17,02,25.90
2009,07,04,17,03,25.90
2009,07,04,17,04,25.90
2009,07,04,17,05,25.90
2009,07,04,17,06,25.90
2009,07,04,17,07,25.80
2009,07,04,17,08,25.80
2009,07,04,17,09,25.70
2009,07,04,17,10,25.70
2009,07,04,17,11,25.70
2009,07,04,17,12,25.60
2009,07,04,17,13,25.60
2009,07,04,17,14,25.70
2009,07,04,17,15,25.60
2009,07,04,17,16,25.60
2009,07,04,17,17,25.50
2009,07,04,17,18,25.40
2009,07,04,17,19,25.40
2009,07,04,17,20,25.40
2009,07,04,17,21,25.50
2009,07,04,17,22,25.60
2009,07,04,17,23,25.60